RH
10 12 12 12 10 9 8 8 7 7 6 7 8 9 10 10 10 11 12 14 15 19 20 19 20 25 33 48 49 39 41 47 54
12 11 11 10 9 10 10 11 11 11 11 10 10 9 10 11 11 12 12 13 13 13 13 13 14 17 22 29 39 47 56 45 45
10 10 11 12 12 12 12 12 12 13 13 12 12 12 12 11 12 13 13 13 13 13 12 11 11 11 14 18 23 31 40 52 51
10 12 13 13 12 11 11 12 12 12 13 13 13 13 13 13 13 14 14 14 14 13 12 12 11 10 10 10 13 16 19 24 35
13 13 14 13 12 12 12 12 13 13 14 14 15 14 14 14 14 15 15 15 15 14 12 12 11 11 11 11 11 10 10 14 19
16 14 14 14 13 13 13 13 13 14 14 16 16 17 17 17 18 19 18 17 15 13 11 12 11 11 12 13 12 11 10 10 10
17 15 15 15 15 14 14 14 14 15 15 16 17 17 17 17 17 18 18 16 14 11 11 12 12 13 18 14 13 12 12 12 18
18 17 16 15 14 14 14 15 15 15 15 15 16 17 17 15 14 15 15 15 13 12 13 14 14 16 20 16 14 14 14 14 16
19 18 15 14 15 16 17 18 18 17 16 16 17 19 18 17 16 15 16 17 15 15 22 23 24 24 21 22 22 20 18 14 15
18 16 14 15 16 17 18 19 19 18 16 16 17 19 19 19 19 18 18 20 20 20 23 26 24 23 22 20 19 18 17 18 20
15 14 14 16 16 17 18 19 19 17 16 15 17 20 21 23 24 24 21 22 23 23 23 22 20 19 20 23 22 20 19 19 23
15 14 16 16 16 17 18 19 20 18 17 16 17 21 23 26 26 25 24 23 24 23 25 23 21 19 21 25 24 23 24 25 26
15 15 17 15 16 17 19 20 21 20 18 17 18 21 23 25 26 25 22 23 22 23 24 23 24 23 21 23 32 28 30 31 37
15 17 16 15 16 18 20 21 21 21 20 19 19 22 22 24 24 23 22 23 23 22 24 24 25 26 25 24 25 27 32 32 42
16 17 16 15 16 18 21 22 21 22 22 22 22 24 28 27 26 27 26 26 25 24 24 24 24 26 26 26 26 27 30 35 42
17 17 16 15 16 17 20 22 22 22 22 22 24 26 29 34 29 30 30 27 25 24 22 22 24 24 26 26 26 28 37 43 47
18 17 16 15 16 17 20 23 23 23 23 23 23 25 29 30 27 30 31 31 31 29 25 21 19 21 21 24 26 28 32 38 48
18 17 16 15 16 17 19 22 23 24 24 25 26 26 26 25 28 31 31 32 32 33 33 32 29 28 25 19 21 26 28 30 35
18 18 17 17 17 17 20 22 23 24 24 26 27 28 29 29 28 30 31 31 31 31 31 31 30 31 35 34 26 22 24 25 28
18 18 18 19 19 20 21 24 24 24 25 26 26 28 30 32 34 32 31 31 31 32 32 33 32 31 31 31 35 39 32 21 23